Weather History for Detroit Metro, MI

Change the Weather History Date:

Wednesday, September 12, 2012

  Actual Average Record
Temperature  
Mean Temperature 70 °F 66 °F  
Max Temperature 84 °F 76 °F 96 °F (1952)
Min Temperature 56 °F 56 °F 39 °F (1943)
Degree Days  
Heating Degree Days 0 2  
Month to date heating degree days 4 17  
Since 1 July heating degree days 5 27  
Cooling Degree Days 5 3  
Month to date cooling degree days 80 50  
Year to date cooling degree days 1138 761  
Growing Degree Days 20 (Base 50)    
Moisture  
Dew Point 54 °F    
Average Humidity 60    
Maximum Humidity 83    
Minimum Humidity 37    
Precipitation  
Precipitation 0.00 in 0.11 in 1.41 in (1925)
Month to date precipitation 1.44 1.32  
Year to date precipitation 20.40 23.75  
Snow  
Snow 0.00 in 0.00 in 0.00 in ()
Month to date snowfall 0.0 0.0  
Since 1 July snowfall 0.0 0.0  
Since 1 September snowfall 0.0 0.0  
Snow Depth 0.00 in    
Sea Level Pressure  
Sea Level Pressure 30.21 in    
Wind  
Wind Speed 7 mph (South)    
Max Wind Speed 18 mph    
Max Gust Speed 26 mph    
Visibility 10 miles    
Events      
T = Trace of Precipitation, MM = Missing Value Source: NWS Daily Summary

Daily Weather History Graph

Daily Weather History Graph

Search for Another Location

Airport:

Trip Planner

Search our weather history database for the weather conditions in past years. The results will help you decide how hot, cold, wet, or windy it might be!

Date:

Astronomy

Sep. 12, 2012 Rise Set
Actual Time 7:10 AM EDT 7:47 PM EDT
Civil Twilight 6:42 AM EDT 8:15 PM EDT
Nautical Twilight 6:09 AM EDT 8:48 PM EDT
Astronomical Twilight 5:34 AM EDT 9:23 PM EDT
Moon 3:23 AM EDT (9/12) 5:37 PM EDT (9/12)
Length of Visible Light 13h 33m
Length of Day
12h 36m
Waning Crescent, 14% of the Moon is Illuminated
Sep 12
Waning Crescent
Sep 15
New
Sep 22
First Quarter
Sep 29
Full
Oct 8
Last Quarter

Hourly Weather History & Observations

Time (EDT) Temp. Heat Index Dew Point Humidity Pressure Visibility Wind Dir Wind Speed Gust Speed Precip Events Conditions
12:53 AM 60.1 °F - 53.1 °F 78% 30.18 in 10.0 mi South 3.5 mph - N/A   Scattered Clouds
1:53 AM 62.1 °F - 54.0 °F 75% 30.19 in 10.0 mi South 3.5 mph - N/A   Partly Cloudy
2:53 AM 60.1 °F - 53.1 °F 78% 30.20 in 10.0 mi South 3.5 mph - N/A   Partly Cloudy
3:53 AM 61.0 °F - 51.1 °F 70% 30.20 in 10.0 mi SSE 3.5 mph - N/A   Clear
4:53 AM 57.9 °F - 51.1 °F 78% 30.21 in 10.0 mi South 4.6 mph - N/A   Clear
5:53 AM 57.0 °F - 50.0 °F 77% 30.22 in 10.0 mi South 3.5 mph - N/A   Clear
6:53 AM 55.9 °F - 50.0 °F 80% 30.24 in 10.0 mi South 4.6 mph - N/A   Partly Cloudy
7:53 AM 57.9 °F - 51.1 °F 78% 30.25 in 10.0 mi South 5.8 mph - N/A   Scattered Clouds
8:53 AM 62.1 °F - 52.0 °F 70% 30.25 in 10.0 mi SSW 8.1 mph - N/A   Mostly Cloudy
9:53 AM 66.0 °F - 53.1 °F 63% 30.25 in 10.0 mi South 8.1 mph - N/A   Mostly Cloudy
10:53 AM 72.0 °F - 54.0 °F 53% 30.25 in 10.0 mi South 8.1 mph - N/A   Mostly Cloudy
11:53 AM 77.0 °F - 55.9 °F 48% 30.24 in 10.0 mi SSW 9.2 mph - N/A   Mostly Cloudy
12:53 PM 80.1 °F 80.1 °F 55.0 °F 42% 30.23 in 10.0 mi South 13.8 mph 23.0 mph N/A   Mostly Cloudy
1:53 PM 82.0 °F 81.4 °F 55.0 °F 39% 30.21 in 10.0 mi SSW 9.2 mph - N/A   Mostly Cloudy
2:53 PM 82.0 °F 81.4 °F 55.0 °F 39% 30.19 in 10.0 mi SSW 9.2 mph - N/A   Mostly Cloudy
3:53 PM 84.0 °F 83.0 °F 55.9 °F 38% 30.18 in 10.0 mi South 16.1 mph 20.7 mph N/A   Mostly Cloudy
4:53 PM 82.9 °F 81.9 °F 54.0 °F 37% 30.17 in 10.0 mi South 15.0 mph - N/A   Mostly Cloudy
5:53 PM 82.9 °F 82.0 °F 55.0 °F 38% 30.16 in 10.0 mi South 11.5 mph - N/A   Mostly Cloudy
6:53 PM 80.1 °F 80.2 °F 55.9 °F 43% 30.17 in 10.0 mi South 10.4 mph - N/A   Scattered Clouds
7:53 PM 77.0 °F - 55.0 °F 47% 30.19 in 10.0 mi South 6.9 mph - N/A   Partly Cloudy
8:53 PM 73.9 °F - 57.0 °F 55% 30.20 in 10.0 mi SSE 5.8 mph - N/A   Scattered Clouds
9:53 PM 70.0 °F - 57.9 °F 65% 30.22 in 10.0 mi SSE 6.9 mph - N/A   Scattered Clouds
10:53 PM 69.1 °F - 57.0 °F 65% 30.21 in 10.0 mi SSE 4.6 mph - N/A   Scattered Clouds
11:53 PM 66.9 °F - 57.0 °F 70% 30.21 in 10.0 mi Calm Calm - N/A   Partly Cloudy